GW0019 Weather Reports


time (UTC)temp
C
wind
direction
speed
KPH
gust
KPH
rain 1hr
cm
rain 24hr
cm
rain mn
cm
humidity
%
barometer
mb
20260506193138 15 25 9.7 11.3 0.00 0.03 0.03 73 1020.6
20260506192634 15 77 11.3 14.5 0.00 0.03 0.03 72 1020.8
20260506192130 15 125 3.2 6.4 0.00 0.03 0.03 73 1020.9
20260506191627 15 308 6.4 6.4 0.00 0.03 0.03 73 1021.0
20260506191123 15 34 3.2 12.9 0.00 0.03 0.03 73 1020.8
20260506190621 15 8 8.0 9.7 0.00 0.03 0.03 73 1020.9
20260506190118 15 289 0.0 14.5 0.00 0.03 0.03 73 1020.7
20260506185615 15 9 12.9 20.9 0.00 0.03 0.03 72 1020.8
20260506185111 14 81 3.2 8.0 0.00 0.03 0.03 72 1020.9
20260506184609 14 37 9.7 11.3 0.00 0.03 0.03 72 1021.0
20260506184106 14 90 6.4 9.7 0.00 0.03 0.03 72 1021.0
20260506183602 14 63 6.4 6.4 0.00 0.03 0.03 72 1021.1
20260506183058 14 34 6.4 12.9 0.00 0.03 0.03 72 1021.0
20260506182556 14 342 4.8 14.5 0.00 0.03 0.03 72 1021.4
20260506182053 14 21 14.5 16.1 0.00 0.03 0.03 72 1021.6
20260506181551 14 261 0.0 8.0 0.00 0.03 0.03 72 1021.2
20260506181047 13 355 1.6 14.5 0.00 0.03 0.03 72 1021.2
20260506180544 13 16 4.8 11.3 0.00 0.03 0.03 72 1021.1
20260506180040 13 70 8.0 11.3 0.00 0.03 0.03 72 1020.9
20260506175537 13 60 9.7 19.3 0.00 0.03 0.03 72 1020.6
20260506175033 13 86 8.0 11.3 0.00 0.03 0.03 72 1020.6
20260506174532 13 44 11.3 20.9 0.00 0.03 0.03 72 1020.7
20260506174027 13 57 9.7 16.1 0.00 0.03 0.03 72 1020.8
20260506173526 13 12 11.3 14.5 0.00 0.03 0.03 72 1021.0
20260506173022 13 358 6.4 9.7 0.00 0.03 0.03 72 1021.1
20260506172519 13 19 6.4 11.3 0.00 0.03 0.03 72 1021.3
20260506172015 12 28 14.5 17.7 0.00 0.03 0.03 72 1021.3
20260506171513 12 328 12.9 17.7 0.00 0.03 0.03 72 1021.3
20260506171010 13 30 8.0 8.0 0.00 0.03 0.03 72 1021.3
20260506170508 13 356 11.3 11.3 0.00 0.03 0.03 72 1021.0
20260506170000 13 77 1.6 3.2 0.00 0.03 0.03 72 1021.2
20260506165458 13 36 3.2 8.0 0.00 0.03 0.03 72 1021.3
20260506164954 12 63 8.0 17.7 0.00 0.03 0.03 72 1021.5
20260506164450 12 314 8.0 12.9 0.00 0.03 0.03 72 1021.5
20260506163948 12 95 9.7 16.1 0.00 0.03 0.03 72 1021.4
20260506163443 12 59 14.5 17.7 0.00 0.03 0.03 72 1021.4
20260506162938 12 28 14.5 19.3 0.00 0.03 0.03 72 1021.2
20260506162436 11 45 11.3 14.5 0.00 0.03 0.03 72 1021.8
20260506161928 11 63 3.2 6.4 0.00 0.03 0.03 72 1021.6
20260506161426 11 63 3.2 6.4 0.00 0.03 0.03 72 1021.7
20260506160923 11 343 8.0 8.0 0.00 0.03 0.03 72 1021.3
20260506160420 11 16 8.0 17.7 0.00 0.03 0.03 72 1021.3
20260506155917 12 14 3.2 17.7 0.00 0.03 0.03 72 1021.3
20260506155414 11 14 6.4 16.1 0.00 0.03 0.03 72 1021.2
20260506153536 11 22 14.5 14.5 0.00 0.03 0.03 72 1021.0
20260506153034 11 22 11.3 11.3 0.00 0.03 0.03 72 1020.7
20260506152531 11 21 9.7 11.3 0.00 0.03 0.03 72 1020.6
20260506152029 10 354 8.0 11.3 0.00 0.03 0.03 72 1020.8
20260506151526 10 47 4.8 9.7 0.00 0.03 0.03 72 1021.1
20260506151023 10 47 4.8 11.3 0.00 0.03 0.03 72 1020.9
20260506150520 10 346 4.8 9.7 0.00 0.03 0.03 72 1021.1
20260506150017 10 29 8.0 11.3 0.00 0.03 0.03 72 1020.8
20260506145513 10 22 3.2 4.8 0.00 0.03 0.03 72 1021.0
20260506145011 8 71 4.8 9.7 0.00 0.03 0.03 71 1020.8
20260506144507 8 71 4.8 9.7 0.00 0.03 0.03 71 1021.0
20260506144005 8 71 4.8 9.7 0.00 0.03 0.03 71 1020.8
20260506143502 8 71 4.8 9.7 0.00 0.03 0.03 71 1020.8
20260506143001 8 71 4.8 9.7 0.00 0.03 0.03 71 1021.1
20260506142458 8 71 4.8 9.7 0.00 0.03 0.03 71 1020.7
20260506141956 8 71 4.8 9.7 0.00 0.03 0.03 71 1020.8
20260506141453 8 71 4.8 9.7 0.00 0.03 0.03 71 1021.0
20260506140952 8 71 4.8 9.7 0.00 0.03 0.03 71 1020.8
20260506140448 8 40 4.8 11.3 0.00 0.03 0.03 71 1020.7
20260506135945 -17 0.0 0.0 0.00 0.03 0.03 1020.8
20260506135443 7 27 14.5 14.5 0.00 0.03 0.03 71 1020.7
20260506134938 7 27 14.5 14.5 0.00 0.03 0.03 71 1020.7
20260506134435 7 27 14.5 14.5 0.00 0.03 0.03 71 1020.6
20260506133932 7 27 14.5 14.5 0.00 0.03 0.03 71 1020.5
20260506133429 7 27 14.5 14.5 0.00 0.03 0.03 71 1020.5
20260506132926 7 27 14.5 14.5 0.00 0.03 0.03 71 1020.7
20260506132422 7 27 14.5 14.5 0.00 0.03 0.03 71 1020.6
20260506131920 7 27 14.5 14.5 0.00 0.03 0.03 71 1020.8
20260506131416 7 27 14.5 14.5 0.00 0.03 0.03 71 1020.6
20260506130914 7 27 14.5 14.5 0.00 0.03 0.03 71 1020.4
20260506130410 7 27 14.5 14.5 0.00 0.03 0.03 71 1020.7
20260506125908 7 27 14.5 14.5 0.00 0.03 0.03 71 1020.5
20260506125406 -17 0.0 0.0 0.00 0.03 0.03 1020.5
20260506124904 -17 0.0 0.0 0.00 0.03 0.03 1020.2
20260506124401 -17 0.0 0.0 0.00 0.03 0.03 1020.2
20260506123859 -17 0.0 0.0 0.00 0.03 0.03 1020.4
20260506123357 -17 0.0 0.0 0.00 0.03 0.03 1020.2
20260506122854 -17 0.0 0.0 0.00 0.03 0.03 1019.9
20260506122350 -17 0.0 0.0 0.00 0.03 0.03 1020.4
20260506121849 -17 0.0 0.0 0.00 0.03 0.03 1020.1
20260506121346 -17 0.0 0.0 0.00 0.03 0.03 1020.1
20260506120842 -17 0.0 0.0 0.00 0.03 0.03 1020.1
20260506120340 -17 0.0 0.0 0.00 0.03 0.03 1019.7
20260506115837 -17 0.0 0.0 0.00 0.03 0.03 1019.5
20260506115336 -17 0.0 0.0 0.00 0.03 0.03 1019.6
20260506114833 -17 0.0 0.0 0.00 0.03 0.03 1019.3
20260506114331 -17 0.0 0.0 0.00 0.03 0.03 1019.3
20260506113829 -17 0.0 0.0 0.00 0.03 0.03 1018.8
20260506113326 -17 0.0 0.0 0.00 0.03 0.03 1018.8
20260506112823 -17 0.0 0.0 0.00 0.03 0.03 1018.7
20260506112320 -17 0.0 0.0 0.00 0.03 0.03 1018.5
20260506111817 -17 0.0 0.0 0.00 0.03 0.03 1018.3
20260506111315 -17 0.0 0.0 0.00 0.03 0.03 1018.0
20260506110813 -17 0.0 0.0 0.00 0.03 0.03 1018.1
20260506110309 -17 0.0 0.0 0.00 0.03 0.03 1017.9
20260506105806 -17 0.0 0.0 0.00 0.03 0.03 1017.9
20260506105305 -17 0.0 0.0 0.00 0.03 0.03 1017.7
20260506104801 -17 0.0 0.0 0.00 0.03 0.03 1017.5
20260506104258 -17 0.0 0.0 0.00 0.03 0.03 1017.8
20260506103755 -17 0.0 0.0 0.00 0.03 0.03 1017.8
20260506103253 -17 0.0 0.0 0.00 0.03 0.03 1017.8
20260506102750 -17 0.0 0.0 0.00 0.03 0.03 1017.9
20260506102248 -17 0.0 0.0 0.00 0.03 0.03 1017.7
20260506101745 -17 0.0 0.0 0.00 0.03 0.03 1017.7
20260506101241 -17 0.0 0.0 0.00 0.03 0.03 1017.8
20260506100739 -17 0.0 0.0 0.00 0.03 0.03 1017.4
20260506100237 -17 0.0 0.0 0.00 0.03 0.03 1017.3
20260506095736 -17 0.0 0.0 0.00 0.03 0.03 1017.4
20260506095232 -17 0.0 0.0 0.00 0.03 0.03 1017.6
20260506094729 -17 0.0 0.0 0.00 0.03 0.03 1017.8
20260506094227 -17 0.0 0.0 0.00 0.03 0.03 1017.7
20260506093726 -17 0.0 0.0 0.00 0.03 0.03 1018.0
20260506093222 -17 0.0 0.0 0.00 0.03 0.03 1018.1
20260506092720 -17 0.0 0.0 0.00 0.03 0.03 1018.0
20260506092217 -17 0.0 0.0 0.00 0.03 0.03 1017.7
20260506091715 -17 0.0 0.0 0.00 0.03 0.03 1017.6
20260506091212 -17 0.0 0.0 0.00 0.03 0.03 1017.5
20260506090710 -17 0.0 0.0 0.00 0.03 0.03 1017.5
20260506090206 -17 0.0 0.0 0.00 0.03 0.03 1017.2
20260506085703 -17 0.0 0.0 0.00 0.03 0.03 1017.0
20260506085159 -17 0.0 0.0 0.00 0.03 0.03 1017.1
20260506084656 -17 0.0 0.0 0.00 0.03 0.03 1016.6
20260506084153 -17 0.0 0.0 0.00 0.03 0.03 1016.1
20260506083649 -17 0.0 0.0 0.00 0.03 0.03 1016.9
20260506083148 -17 0.0 0.0 0.00 0.03 0.03 1017.2
20260506082644 -17 0.0 0.0 0.00 0.03 0.03 1017.0
20260506082139 -17 0.0 0.0 0.00 0.03 0.03 1017.3
20260506081638 -17 0.0 0.0 0.00 0.03 0.03 1017.3
20260506081135 -17 0.0 0.0 0.00 0.03 0.03 1017.3
20260506080633 -17 0.0 0.0 0.00 0.03 0.03 1017.6
20260506080129 -17 0.0 0.0 0.00 0.03 0.03 1017.4
20260506073113 6 28 14.5 14.5 0.00 0.03 0.03 71 1016.7
20260506072609 6 28 14.5 14.5 0.00 0.03 0.03 71 1016.6
20260506072108 6 28 14.5 14.5 0.00 0.03 0.03 71 1016.5
20260506071605 6 28 14.5 14.5 0.00 0.03 0.03 71 1016.8
20260506071103 6 28 14.5 14.5 0.00 0.03 0.03 71 1016.5
20260506070600 6 28 14.5 14.5 0.00 0.03 0.03 71 1016.8
20260506062033 6 50 4.8 14.5 0.00 0.03 0.03 71 1016.3
20260506061529 6 50 4.8 14.5 0.00 0.03 0.03 71 1016.1
20260506061027 6 78 3.2 16.1 0.00 0.03 0.03 71 1016.2
20260506060525 6 57 3.2 6.4 0.00 0.03 0.03 71 1016.4
20260506050954 7 25 8.0 8.0 0.05 0.00 0.00 71 1016.2
20260506050452 7 25 8.0 8.0 0.00 0.00 0.00 71 1015.8
20260506044942 6 16 9.7 9.7 0.05 0.71 0.71 71 1016.5
20260506044441 6 16 9.7 9.7 0.00 0.71 0.71 71 1016.4
20260506043937 6 16 9.7 16.1 0.18 0.71 0.71 71 1016.5
20260506043434 6 11 8.0 14.5 0.36 0.71 0.71 71 1016.3
20260506042932 6 51 8.0 14.5 0.18 0.69 0.69 71 1016.0
20260506042431 6 51 8.0 14.5 0.00 0.66 0.66 71 1015.7
20260506041929 7 22 11.3 16.1 0.00 0.66 0.66 71 1015.4
20260506041426 7 22 11.3 16.1 0.00 0.66 0.66 71 1015.5
20260506040923 7 22 11.3 16.1 0.00 0.66 0.66 71 1015.6
20260506040421 7 8 3.2 6.4 0.00 0.66 0.66 71 1016.4
20260506035917 7 8 3.2 6.4 0.00 0.66 0.66 71 1015.5
20260506035415 7 17 11.3 11.3 0.00 0.66 0.66 71 1015.1
20260506034911 7 17 11.3 11.3 0.00 0.66 0.66 71 1015.2
20260506034408 7 17 11.3 11.3 0.00 0.66 0.66 71 1015.4
20260506033905 7 17 11.3 11.3 0.00 0.66 0.66 71 1015.8
20260506033402 7 37 6.4 12.9 0.00 0.66 0.66 71 1014.8
20260506032859 7 124 6.4 6.4 0.48 0.66 0.66 71 1015.0
20260506032356 7 345 0.0 6.4 0.97 0.66 0.66 71 1015.2
20260506031853 7 77 3.2 8.0 0.66 0.56 0.56 71 1014.8
20260506031350 -17 0.0 0.0 0.23 0.48 0.48 1014.7
20260506030848 -17 0.0 0.0 0.05 0.46 0.46 1014.6
20260506030346 -17 0.0 0.0 0.00 0.46 0.46 1014.6
20260506025842 -17 0.0 0.0 0.00 0.46 0.46 1014.3
20260506025338 7 25 14.5 16.1 0.00 0.46 0.46 71 1014.3
20260506024836 7 25 14.5 16.1 0.00 0.46 0.46 71 1014.3
20260506024333 7 25 14.5 16.1 0.00 0.46 0.46 71 1014.5
20260506023829 7 25 14.5 16.1 0.00 0.46 0.46 71 1014.6
20260506023325 7 25 14.5 16.1 0.00 0.46 0.46 71 1014.6
20260506022822 7 25 14.5 16.1 0.05 0.46 0.46 71 1014.3
20260506022320 7 25 14.5 16.1 0.13 0.46 0.46 71 1014.5
20260506021818 7 25 14.5 16.1 0.13 0.43 0.43 71 1014.7
20260506021315 7 25 14.5 16.1 0.00 0.43 0.43 71 1014.0
20260506020811 7 25 14.5 16.1 0.00 0.43 0.43 71 1014.4
20260506020309 7 25 14.5 16.1 0.00 0.43 0.43 71 1014.3
20260506015807 7 25 14.5 16.1 0.00 0.43 0.43 71 1014.4
20260506015306 7 20 11.3 20.9 0.00 0.43 0.43 71 1014.0
20260506014801 7 20 11.3 20.9 0.00 0.43 0.43 71 1013.9
20260506014257 -17 0.0 0.0 0.00 0.43 0.43 1014.1
20260506013754 -17 0.0 0.0 0.05 0.43 0.43 1013.6
20260506013251 -17 0.0 0.0 0.23 0.43 0.43 1013.5
20260506012748 -17 0.0 0.0 0.43 0.41 0.41 1013.5
20260506012245 -17 0.0 0.0 0.23 0.38 0.38 1013.7
20260506011742 -17 0.0 0.0 0.00 0.33 0.33 1013.4
20260506011238 -17 0.0 0.0 0.00 0.33 0.33 1013.1
20260506010737 -17 0.0 0.0 0.00 0.33 0.33 1013.2
20260506010234 -17 0.0 0.0 0.00 0.33 0.33 1013.6
20260506005731 -17 0.0 0.0 0.00 0.33 0.33 1013.4
20260506005228 -17 0.0 0.0 0.00 0.33 0.33 1013.1
20260506004723 -17 0.0 0.0 0.00 0.33 0.33 1012.8
20260506004221 -17 0.0 0.0 0.05 0.33 0.33 1013.1
20260506003717 -17 0.0 0.0 0.05 0.33 0.33 1013.0
20260506003214 -17 0.0 0.0 0.00 0.33 0.33 1013.1
20260506002709 -17 0.0 0.0 0.00 0.33 0.33 1013.1
20260506002206 -17 0.0 0.0 0.00 0.33 0.33 1012.8
20260506001702 -17 0.0 0.0 0.00 0.33 0.33 1012.5
20260506001159 10 34 6.4 12.9 0.00 0.33 0.33 72 1012.2
20260506000656 10 34 6.4 12.9 0.00 0.33 0.33 72 1012.4
20260506000154 10 34 6.4 12.9 0.00 0.33 0.33 72 1012.4
20260505235652 10 34 6.4 12.9 0.00 0.33 0.33 72 1012.5
20260505235149 10 34 6.4 12.9 0.00 0.33 0.33 72 1012.1
20260505234645 10 34 6.4 12.9 0.00 0.33 0.33 72 1012.0
20260505234142 10 34 6.4 12.9 0.00 0.33 0.33 72 1012.1
20260505233639 10 34 6.4 12.9 0.00 0.33 0.33 72 1011.8
20260505233137 10 34 6.4 12.9 0.00 0.33 0.33 72 1012.6
20260505232634 10 34 6.4 12.9 0.00 0.33 0.33 72 1012.2
20260505232132 10 34 6.4 12.9 0.00 0.33 0.33 72 1012.2
20260505231628 10 34 6.4 12.9 0.00 0.33 0.33 72 1012.1
20260505231127 -17 0.0 0.0 0.00 0.33 0.33 1012.2
20260505230625 -17 0.0 0.0 0.00 0.33 0.33 1012.1
20260505230121 -17 0.0 0.0 0.00 0.33 0.33 1012.0
20260505225617 -17 0.0 0.0 0.00 0.33 0.33 1012.0
20260505225114 -17 0.0 0.0 0.00 0.33 0.33 1012.1
20260505224610 11 47 19.3 19.3 0.00 0.33 0.33 72 1012.0
20260505224108 11 47 19.3 19.3 0.00 0.33 0.33 72 1011.9
20260505223605 11 47 19.3 19.3 0.00 0.33 0.33 72 1011.7
20260505223101 11 47 19.3 19.3 0.05 0.33 0.33 72 1011.7
20260505222558 11 47 19.3 19.3 0.05 0.33 0.33 72 1011.7
20260505222054 11 47 19.3 19.3 0.00 0.33 0.33 72 1011.7
20260505221551 11 47 19.3 19.3 0.00 0.33 0.33 72 1011.6
20260505221047 11 47 19.3 19.3 0.00 0.33 0.33 72 1011.6
20260505220545 11 47 19.3 19.3 0.00 0.33 0.33 72 1011.7
20260505220043 11 47 19.3 19.3 0.00 0.33 0.33 72 1011.3
20260505215540 11 47 19.3 19.3 0.00 0.33 0.33 72 1011.7
20260505215038 11 47 19.3 19.3 0.00 0.33 0.33 72 1011.9
20260505214536 11 17 8.0 11.3 0.00 0.33 0.33 72 1012.5
20260505214032 11 17 8.0 11.3 0.00 0.33 0.33 72 1012.0
20260505213530 11 54 12.9 17.7 0.00 0.33 0.33 72 1011.7
20260505213026 11 46 16.1 17.7 0.05 0.33 0.33 72 1011.4
20260505212523 11 56 6.4 9.7 0.05 0.33 0.33 72 1010.8
20260505212020 11 26 19.3 30.6 0.00 0.30 0.30 72 1010.9
20260505211517 11 26 19.3 30.6 0.00 0.30 0.30 72 1011.2
20260505211014 11 26 19.3 30.6 0.05 0.30 0.30 72 1011.2
20260505210510 12 33 9.7 20.9 0.05 0.30 0.30 72 1011.5
20260505210008 12 132 6.4 9.7 0.05 0.30 0.30 72 1011.5
20260505205506 12 132 6.4 9.7 0.05 0.30 0.30 72 1011.9
20260505205003 12 132 6.4 9.7 0.00 0.28 0.28 72 1011.4
20260505204500 12 132 6.4 9.7 0.00 0.28 0.28 72 1011.7
20260505203957 12 132 6.4 9.7 0.00 0.28 0.28 72 1011.9
20260505203453 12 132 6.4 9.7 0.00 0.28 0.28 72 1011.7
20260505202950 12 132 6.4 9.7 0.00 0.28 0.28 72 1012.0
20260505202447 12 132 6.4 9.7 0.05 0.28 0.28 72 1012.2
20260505201943 12 132 6.4 9.7 0.00 0.28 0.28 72 1011.9
20260505201440 12 132 6.4 9.7 0.00 0.28 0.28 72 1012.0
20260505200938 12 132 6.4 9.7 0.00 0.28 0.28 72 1011.5
20260505200435 13 42 16.1 16.1 0.00 0.28 0.28 72 1011.4
20260505195930 13 42 16.1 16.1 0.00 0.28 0.28 72 1011.7
20260505195428 13 5 12.9 20.9 0.00 0.28 0.28 72 1011.8
20260505194925 13 5 12.9 20.9 0.00 0.28 0.28 72 1012.0
20260505194423 13 5 12.9 20.9 0.00 0.28 0.28 72 1012.1
20260505193922 13 5 12.9 20.9 0.00 0.28 0.28 72 1012.0